Find Starlink 35361

NORAD ID: 65667 Int'l Des: 2025-211 Owner: SPXS Country: US Constellation: starlink operational
LEOCIRCULARRETROGRADESSO

現在のビュー

3D地球を読み込み中...

About Starlink 35361

Starlink 35361 (NORAD 65667) is a starlink constellation satellite (v2 mini) launched Sep 19, 2025 by SPXS of US. It operates in LEO, CIRCULAR, RETROGRADE, SSO orbit with a mass of 575.00 kg.

次回通過

Passes for default location (London). Set your location on the main map for personalized predictions.

高度履歴

Loading altitude history...

軌道要素

1 65667U 25211R 26262.94745970 .00015838 00000-0 49170-3 0 9993
2 65667 97.2842 303.1127 0001126 96.9539 263.1831 15.33457683 56439
Epoch: Sep 19, 2026 • Age: 19 hours

現在のステータス

高度 475.9 km
遠地点 / 近地点 N/A
速度 7.63 km/s
衛星直下点 -26.71°S, 46.7°E
打ち上げ日 Sep 19, 2025
運用期間 1 year
タイプ internet

技術仕様

分類 Payload
質量 575.00 kg
乾燥質量 530.00 kg
長さ 0.30 m
スパン 29.00 m
形状 ? Box + pan
製造者 SPXS
バスタイプ Starlink V2MO
フェーズステータス In Orbit
所有者/国 SPXS/US

Most Searched